TimeCEST,TemperatureF,Dew PointF,Humidity,Sea Level PressureIn,VisibilityMPH,Wind Direction,Wind SpeedMPH,Gust SpeedMPH,PrecipitationIn,Events,Conditions,WindDirDegrees,DateUTC
12:00 AM,53.6,48.2,82,30.01,-9999.0,SSW,3.5,-,N/A,,Clear,210,2012-10-03 22:00:00
1:00 AM,53.6,48.2,82,30.01,-9999.0,SSW,8.1,-,N/A,,Clear,200,2012-10-03 23:00:00
2:00 AM,53.6,48.2,82,30.01,-9999.0,South,6.9,-,N/A,,Clear,190,2012-10-04 00:00:00
3:00 AM,55.4,50.0,82,30.01,-9999.0,South,8.1,-,N/A,,Clear,190,2012-10-04 01:00:00
4:00 AM,57.2,48.2,72,29.98,-9999.0,South,10.4,-,N/A,,Clear,180,2012-10-04 02:00:00
5:00 AM,55.4,48.2,77,29.98,-9999.0,South,10.4,-,N/A,,Clear,190,2012-10-04 03:00:00
6:00 AM,53.6,48.2,82,29.98,-9999.0,South,5.8,-,N/A,,Clear,180,2012-10-04 04:00:00
7:00 AM,51.8,48.2,88,29.95,-9999.0,SE,3.5,-,N/A,,Clear,140,2012-10-04 05:00:00
8:00 AM,53.6,48.2,82,29.95,-9999.0,SSE,5.8,-,N/A,,Clear,150,2012-10-04 06:00:00
9:00 AM,59.0,50.0,72,29.95,-9999.0,SSE,6.9,-,N/A,,Clear,150,2012-10-04 07:00:00
11:00 AM,66.2,51.8,60,29.95,-9999.0,South,8.1,-,N/A,,Clear,190,2012-10-04 09:00:00
12:00 PM,66.2,51.8,60,29.92,-9999.0,South,5.8,-,N/A,,Clear,190,2012-10-04 10:00:00
1:00 PM,66.2,48.2,52,29.89,-9999.0,SSW,11.5,-,N/A,,Clear,200,2012-10-04 11:00:00
2:00 PM,68.0,48.2,49,29.86,-9999.0,South,11.5,-,N/A,,Clear,190,2012-10-04 12:00:00
3:00 PM,68.0,50.0,52,29.86,-9999.0,South,13.8,24.2,N/A,,Clear,190,2012-10-04 13:00:00
4:00 PM,66.2,50.0,56,29.83,6.2,SSW,12.7,-,N/A,Rain,Light Rain Showers,200,2012-10-04 14:00:00
5:00 PM,66.2,51.8,60,29.80,-9999.0,South,13.8,-,N/A,,Clear,170,2012-10-04 15:00:00
6:00 PM,64.4,51.8,64,29.80,-9999.0,South,12.7,-,N/A,,Clear,180,2012-10-04 16:00:00
7:00 PM,62.6,53.6,72,29.86,6.2,SW,13.8,-,N/A,Rain,Light Rain Showers,230,2012-10-04 17:00:00
8:00 PM,57.2,51.8,82,29.89,6.2,WSW,18.4,28.8,N/A,Rain,Rain Showers,240,2012-10-04 18:00:00
9:00 PM,55.4,50.0,82,29.95,6.2,West,16.1,-,N/A,,Mostly Cloudy,260,2012-10-04 19:00:00
10:00 PM,53.6,48.2,82,29.98,6.2,WSW,10.4,-,N/A,,Mostly Cloudy,250,2012-10-04 20:00:00
11:00 PM,51.8,44.6,76,30.01,-9999.0,WSW,9.2,-,N/A,,Clear,240,2012-10-04 21:00:00